This is the latest recevied weather packets stored in our database for station/object KE5WTH-14. If no packets are shown the sender has not sent any weather packets the latest 10 day(s).
| Time | Temp. | Humidity | Pressure | Rain* | Wind** | Luminosity | Snow |
|---|---|---|---|---|---|---|---|
| 1778077140 | 12.22° C | 83% | 1014.9 hPa | 0 mm | - | 56 W/m² | - |
| 1778077079 | 12.22° C | 83% | 1014.9 hPa | 0 mm | - | 62 W/m² | - |
| 1778077002 | 12.22° C | 83% | 1014.8 hPa | 0 mm | - | 56 W/m² | - |
| 1778076937 | 12.22° C | 83% | 1014.6 hPa | 0 mm | - | 60 W/m² | - |
| 1778076875 | 12.22° C | 83% | 1014.5 hPa | 0 mm | - | 67 W/m² | - |
| 1778076814 | 12.22° C | 84% | 1014.3 hPa | 0 mm | - | 77 W/m² | - |
| 1778076755 | 12.22° C | 84% | 1014.2 hPa | 0 mm | - | 84 W/m² | - |
| 1778076693 | 12.22° C | 84% | 1014.2 hPa | 0 mm | - | 98 W/m² | - |
| 1778076634 | 12.22° C | 84% | 1014.2 hPa | 0 mm | - | 127 W/m² | - |
| 1778076573 | 12.22° C | 84% | 1014.2 hPa | 0 mm | - | 127 W/m² | - |
| 1778076512 | 12.22° C | 84% | 1014.1 hPa | 0 mm | - | 127 W/m² | - |
| 1778076454 | 12.22° C | 84% | 1014.1 hPa | 0 mm | - | 125 W/m² | - |
| 1778076395 | 11.67° C | 84% | 1014.1 hPa | 0 mm | - | 109 W/m² | - |
| 1778076334 | 11.67° C | 85% | 1014.2 hPa | 0 mm | - | 106 W/m² | - |
| 1778076259 | 11.67° C | 84% | 1014.3 hPa | 0 mm | - | 97 W/m² | - |
| 1778076198 | 11.67° C | 85% | 1014.2 hPa | 0 mm | - | 86 W/m² | - |
| 1778076136 | 11.67° C | 85% | 1014.2 hPa | 0 mm | - | 86 W/m² | - |
| 1778076073 | 11.67° C | 85% | 1014.2 hPa | 0 mm | - | 88 W/m² | - |
| 1778076013 | 11.67° C | 85% | 1014.1 hPa | 0 mm | - | 88 W/m² | - |
| 1778075952 | 11.67° C | 85% | 1014.2 hPa | 0 mm | - | 84 W/m² | - |
| 1778075893 | 11.67° C | 85% | 1014.1 hPa | 0 mm | - | 70 W/m² | - |
| 1778075832 | 11.67° C | 85% | 1014.2 hPa | 0 mm | - | 70 W/m² | - |
| 1778075772 | 11.67° C | 85% | 1014.1 hPa | 0 mm | - | 100 W/m² | - |
| 1778075714 | 11.67° C | 85% | 1014 hPa | 0 mm | - | 100 W/m² | - |
| 1778075651 | 11.67° C | 85% | 1013.9 hPa | 0 mm | - | 100 W/m² | - |
* Rain latest hour (hover to see other rain measurements)
** Current wind speed in m/s (hover to see current wind gust speed)